GW0084 Weather Reports


time (UTC)temp
F
wind
direction
speed
knots
gust
knots
rain 1hr
in
rain 24hr
in
rain mn
in
humidity
%
barometer
mb
20260508023044 61 221 0.0 4.3 0.00 0.00 0.00 15 1015.3
20260508021549 62 142 0.0 1.7 0.00 0.00 0.00 16 1015.0
20260508020050 63 0 0.0 1.7 0.00 0.00 0.00 16 1014.8
20260508014542 65 346 0.0 0.9 0.00 0.00 0.00 14 1014.5
20260508013048 66 0 0.0 0.9 0.00 0.00 0.00 13 1014.4
20260508011545 66 147 0.0 1.7 0.00 0.00 0.00 12 1014.2
20260508010043 67 151 0.9 4.3 0.00 0.00 0.00 12 1014.2
20260508004547 67 0 1.7 7.0 0.00 0.00 0.00 12 1014.3
20260508003041 68 152 2.6 8.7 0.00 0.00 0.00 12 1014.4
20260508001539 68 117 2.6 10.4 0.00 0.00 0.00 12 1014.4
20260508000038 68 0 1.7 12.2 0.00 0.00 0.00 13 1014.5
20260507234549 67 209 6.1 13.9 0.00 0.00 0.00 12 1014.7
20260507233043 68 167 6.1 14.8 0.00 0.00 0.00 13 1014.6
20260507231548 69 128 2.6 11.3 0.00 0.00 0.00 14 1014.6
20260507230043 67 158 3.5 12.2 0.00 0.00 0.00 17 1015.0
20260507224549 69 70 4.3 10.4 0.00 0.00 0.00 17 1015.0
20260507223045 67 211 6.1 12.2 0.00 0.00 0.00 18 1015.1
20260507221545 69 171 5.2 12.2 0.00 0.00 0.00 18 1015.2
20260507220051 69 244 0.9 10.4 0.00 0.00 0.00 20 1015.4
20260507214541 68 136 2.6 13.0 0.00 0.00 0.00 22 1015.7
20260507213040 67 175 0.0 17.4 0.00 0.00 0.00 24 1016.0
20260507211546 67 92 3.5 11.3 0.00 0.00 0.00 24 1016.3
20260507210043 71 159 4.3 11.3 0.00 0.00 0.00 20 1016.3
20260507204540 68 152 0.9 11.3 0.00 0.00 0.00 21 1016.7
20260507203057 67 65 1.7 11.3 0.00 0.00 0.00 22 1016.9
20260507201541 68 190 0.9 13.9 0.00 0.00 0.00 21 1017.1
20260507200049 69 186 3.5 10.4 0.00 0.00 0.00 20 1017.3
20260507194542 69 161 1.7 7.8 0.00 0.00 0.00 21 1017.5
20260507193041 67 62 1.7 7.0 0.00 0.00 0.00 23 1017.8
20260507191539 66 350 3.5 9.6 0.00 0.00 0.00 22 1017.9
20260507190039 66 61 2.6 7.0 0.00 0.00 0.00 23 1018.1
20260507184544 64 169 1.7 8.7 0.00 0.00 0.00 25 1018.3
20260507183044 62 182 2.6 7.8 0.00 0.00 0.00 24 1018.4
20260507181541 62 159 2.6 8.7 0.00 0.00 0.00 25 1018.8
20260507180043 60 157 0.0 7.0 0.00 0.00 0.00 27 1018.8
20260507174550 59 131 1.7 7.8 0.00 0.00 0.00 28 1019.1
20260507173048 57 136 3.5 8.7 0.00 0.00 0.00 29 1019.4
20260507171603 55 96 1.7 7.8 0.00 0.00 0.00 31 1019.7
20260507170042 54 100 1.7 5.2 0.00 0.00 0.00 33 1019.8
20260507164558 52 149 0.9 7.0 0.00 0.00 0.00 34 1019.8
20260507163041 51 129 0.9 5.2 0.00 0.00 0.00 35 1020.0
20260507161544 50 0 0.9 6.1 0.00 0.00 0.00 36 1020.2
20260507160045 49 146 0.9 3.5 0.00 0.00 0.00 38 1020.3
20260507154542 48 0 0.0 3.5 0.00 0.00 0.00 37 1020.3
20260507153049 47 124 0.9 5.2 0.00 0.00 0.00 40 1020.3
20260507151545 45 274 0.9 5.2 0.00 0.00 0.00 46 1020.2
20260507150048 43 0 0.9 3.5 0.00 0.00 0.00 49 1020.4
20260507144540 41 0 0.0 2.6 0.00 0.00 0.00 55 1020.4
20260507143045 39 136 0.9 2.6 0.00 0.00 0.00 60 1020.4
20260507141553 37 0 0.0 0.9 0.00 0.00 0.00 65 1020.6
20260507140045 35 13 0.0 0.9 0.00 0.00 0.00 66 1020.7
20260507134551 34 0 0.0 0.9 0.00 0.00 0.00 67 1020.8
20260507133042 34 0 0.0 0.0 0.00 0.00 0.00 66 1020.9
20260507131541 34 0 0.0 0.0 0.00 0.00 0.00 66 1020.9
20260507130042 34 0 0.0 0.9 0.00 0.00 0.00 67 1020.9
20260507124544 34 0 0.0 0.0 0.00 0.00 0.00 65 1020.6
20260507123042 35 0 0.0 0.0 0.00 0.00 0.00 65 1020.6
20260507121542 35 0 0.0 0.9 0.00 0.00 0.00 64 1020.6
20260507120040 35 0 0.0 0.0 0.00 0.00 0.00 62 1020.6
20260507114546 35 0 0.0 0.0 0.00 0.00 0.00 63 1020.6
20260507113043 34 0 0.0 1.7 0.00 0.00 0.00 64 1020.6
20260507111542 34 0 0.0 0.9 0.00 0.00 0.00 64 1020.6
20260507110053 35 0 0.0 0.9 0.00 0.00 0.00 64 1020.5
20260507104540 35 0 0.0 0.9 0.00 0.00 0.00 65 1020.5
20260507103050 37 0 0.0 0.9 0.00 0.00 0.00 62 1020.5
20260507101547 38 0 0.0 2.6 0.00 0.00 0.00 60 1020.6
20260507100045 38 0 0.0 0.0 0.00 0.00 0.00 57 1020.5
20260507094541 38 0 0.0 1.7 0.00 0.00 0.00 57 1020.4
20260507093040 38 95 0.0 1.7 0.00 0.00 0.00 56 1020.4
20260507091545 38 0 0.0 0.9 0.00 0.00 0.00 58 1020.3
20260507090046 38 0 0.0 0.9 0.00 0.00 0.00 58 1020.4
20260507084543 38 0 0.0 1.7 0.00 0.00 0.00 58 1020.2
20260507083049 38 0 0.0 1.7 0.00 0.00 0.00 58 1020.3
20260507081543 38 0 0.0 0.9 0.00 0.00 0.00 59 1020.3
20260507080048 38 0 0.0 0.9 0.00 0.00 0.00 60 1020.3
20260507074546 39 0 0.0 0.0 0.00 0.00 0.00 62 1020.2
20260507073043 39 0 0.0 0.0 0.00 0.00 0.00 63 1020.3
20260507071543 39 0 0.0 0.0 0.00 0.00 0.00 62 1020.2
20260507070059 40 0 0.0 0.0 0.00 0.00 0.00 61 1020.0
20260507064551 40 0 0.0 0.9 0.00 0.00 0.00 61 1019.9
20260507063051 40 0 0.0 0.9 0.00 0.00 0.00 61 1019.9
20260507061545 40 0 0.0 1.7 0.00 0.00 0.00 60 1019.6
20260507060054 40 0 0.0 1.7 0.00 0.00 0.00 61 1019.5
20260507054547 40 0 0.0 0.0 0.00 0.00 0.00 61 1019.3
20260507053048 40 0 0.0 0.0 0.00 0.00 0.00 59 1019.3
20260507051549 40 0 0.0 0.0 0.00 0.00 0.00 60 1019.3
20260507050043 40 0 0.0 0.0 0.00 0.00 0.00 62 1019.1
20260507044547 41 0 0.0 0.0 0.00 0.00 0.00 63 1019.0
20260507043042 42 0 0.0 0.9 0.00 0.00 0.00 62 1018.8
20260507041542 43 0 0.0 0.9 0.00 0.00 0.00 60 1018.8
20260507040042 43 0 0.0 0.9 0.00 0.00 0.00 60 1018.6
20260507034552 44 0 0.0 0.9 0.00 0.01 0.00 57 1018.4
20260507033047 45 0 0.0 1.7 0.00 0.01 0.00 56 1018.1
20260507031548 46 0 0.0 1.7 0.00 0.01 0.00 53 1017.7
20260507030042 48 77 0.0 2.6 0.00 0.01 0.00 48 1017.5
20260507024555 49 0 0.0 3.5 0.00 0.03 0.00 42 1017.1